This demonstration page uses our WeatherBlox Daily Observations layout. Learn more.

36.17497, -115.13722

Hourly Observations for August 7, 2018

Temp ( °F °C ) Dew Point ( °F °C ) Humidity (%) Winds ( mph kmh ) Pressure ( in mb ) Visibility ( mi km ) Precip ( " mm )
12:53 am 00:53 Clear 89 31.7 33 0.6 14 14 Calm 29.78 1009 10 16.0934 0 0
1:53 am 01:53 Clear 88 31.1 33 0.6 14 14 WSW 6 9 29.78 1008 10 16.0934 0 0
2:53 am 02:53 Clear 86 30 33 0.6 15 15 Calm 29.78 1008 10 16.0934 0 0
3:53 am 03:53 Clear 85 29.4 34 1.1 16 16 W 6 9 29.77 1008 10 16.0934 0 0
4:53 am 04:53 Clear 82 27.8 35 1.7 18 18 Calm 29.79 1009 10 16.0934 0 0
5:53 am 05:53 Sunny 81 27.2 35 1.7 19 19 Calm 29.8 1009 10 16.0934 0 0
6:53 am 06:53 Sunny 83 28.3 32 0 16 16 Calm 29.82 1010 10 16.0934 0 0
7:53 am 07:53 Sunny 90 32.2 29 -1.7 11 11 Calm 29.83 1010 10 16.0934 0 0
8:53 am 08:53 Sunny 94 34.4 26 -3.3 9 9 Calm 29.85 1011 10 16.0934 0 0
9:53 am 09:53 Sunny 97 36.1 25 -3.9 7 7 ESE 6 9 29.86 1011 10 16.0934 0 0
10:53 am 10:53 Sunny 99 37.2 26 -3.3 7 7 E 8 13 29.84 1011 10 16.0934 0 0
11:53 am 11:53 Sunny 101 38.3 27 -2.8 7 7 E 6 9 29.83 1010 10 16.0934 0 0
12:53 pm 12:53 Sunny 103 39.4 27 -2.8 7 7 VRB 6 9 29.81 1009 10 16.0934 0 0
1:53 pm 13:53 Sunny 105 40.6 27 -2.8 6 6 VRB 5 7 29.78 1008 10 16.0934 0 0
2:53 pm 14:53 Sunny 107 41.7 25 -3.9 5 5 ESE 7 11 29.75 1008 10 16.0934 0 0
3:53 pm 15:53 Sunny 109 42.8 27 -2.8 6 6 S 9 15 29.73 1007 10 16.0934 0 0
4:53 pm 16:53 Sunny 109 42.8 28 -2.2 6 6 ESE 9 15 29.71 1006 10 16.0934 0 0
5:53 pm 17:53 Sunny 109 42.8 29 -1.7 6 6 S 6 9 29.7 1006 10 16.0934 0 0
6:53 pm 18:53 Sunny 108 42.2 33 0.6 7 7 WSW 12 19 29.69 1005 10 16.0934 0 0
7:53 pm 19:53 Clear 105 40.6 37 2.8 10 10 WSW 7 11 29.7 1006 10 16.0934 0 0
8:53 pm 20:53 Clear 101 38.3 38 3.3 11 11 Calm 29.72 1007 10 16.0934 0 0
9:53 pm 21:53 Clear 102 38.9 38 3.3 11 11 S 5 7 29.73 1007 10 16.0934 0 0
10:53 pm 22:53 Clear 97 36.1 40 4.4 14 14 WSW 3 6 29.74 1007 10 16.0934 0 0
11:53 pm 23:53 Clear 93 33.9 38 3.3 14 14 NNW 3 6 29.75 1008 10 16.0934 0 0

Powered by AerisWeather